{"data":{"norad_id":62126,"epoch":"2026-09-21T22:04:34.158720Z","epoch_age_seconds":59610,"freshness":"FRESH","line1":"1 62126U 24222N   26264.91983980  .00011090  00000+0  41177-3 0  9999","line2":"2 62126  43.0027 107.6520 0002937 280.1247  79.9273 15.27590694102762","mean_motion":15.27590694,"eccentricity":0.0002937,"inclination_deg":43.0027,"raan_deg":107.652,"arg_perigee_deg":280.1247,"mean_anomaly_deg":79.9273,"bstar":0.00041177,"rev_number":10276,"period_min":94.266088793023,"perigee_km":481.00195359162,"apogee_km":485.03219549501,"semimajor_km":6861.1540745433,"source":"CELESTRAK","updated_at":"2026-09-22T09:00:49.526091Z"}}